Time,TemperatureF,DewpointF,PressureIn,WindDirection,WindDirectionDegrees,WindSpeedMPH,WindSpeedGustMPH,Humidity,HourlyPrecipIn,Conditions,Clouds,dailyrainin,SoftwareType,DateUTC
2013-11-21 00:15:00,36.1,29.0,30.03,SW,225,0.0,-999.0,75,-99.99,,,0.00,Acu-Link.com,2013-11-21 05:15:00,
2013-11-21 00:30:00,35.6,28.8,30.03,WNW,292,0.0,-999.0,76,-99.99,,,0.00,Acu-Link.com,2013-11-21 05:30:00,
2013-11-21 00:45:00,36.3,29.1,30.03,South,180,0.0,-999.0,75,-99.99,,,0.00,Acu-Link.com,2013-11-21 05:45:00,
2013-11-21 01:00:00,36.3,29.1,30.04,WSW,247,0.0,-999.0,75,-99.99,,,0.00,Acu-Link.com,2013-11-21 06:00:00,
2013-11-21 01:16:00,35.8,29.0,30.03,NNW,337,0.0,-999.0,76,-99.99,,,0.00,Acu-Link.com,2013-11-21 06:16:00,
2013-11-21 01:31:00,35.6,29.4,30.04,NW,315,0.0,-999.0,78,-99.99,,,0.00,Acu-Link.com,2013-11-21 06:31:00,
2013-11-21 01:46:00,35.8,29.6,30.05,West,270,0.0,-999.0,78,-99.99,,,0.00,Acu-Link.com,2013-11-21 06:46:00,
2013-11-21 02:02:00,35.8,29.6,30.05,WNW,292,0.0,-999.0,78,-99.99,,,0.00,Acu-Link.com,2013-11-21 07:02:00,
2013-11-21 02:17:00,38.8,30.6,30.04,SE,135,2.2,-999.0,72,-99.99,,,0.00,Acu-Link.com,2013-11-21 07:17:00,
2013-11-21 02:32:00,38.5,30.6,30.05,NE,45,0.0,-999.0,73,-99.99,,,0.00,Acu-Link.com,2013-11-21 07:32:00,
2013-11-21 02:47:00,38.8,30.6,30.05,ENE,67,1.7,-999.0,72,-99.99,,,0.00,Acu-Link.com,2013-11-21 07:47:00,
2013-11-21 03:03:00,42.3,31.4,30.06,ESE,112,3.2,-999.0,65,-99.99,,,0.00,Acu-Link.com,2013-11-21 08:03:00,
2013-11-21 03:18:00,43.2,31.1,30.05,SSE,157,2.7,-999.0,62,-99.99,,,0.00,Acu-Link.com,2013-11-21 08:18:00,
2013-11-21 03:33:00,43.2,31.1,30.06,SE,135,1.7,-999.0,62,-99.99,,,0.00,Acu-Link.com,2013-11-21 08:33:00,
2013-11-21 03:49:00,42.4,31.1,30.05,SSE,157,3.2,-999.0,64,-99.99,,,0.00,Acu-Link.com,2013-11-21 08:49:00,
2013-11-21 04:04:00,42.3,30.6,30.06,SSE,157,2.7,-999.0,63,-99.99,,,0.00,Acu-Link.com,2013-11-21 09:04:00,
2013-11-21 04:19:00,41.9,30.6,30.07,South,180,2.7,-999.0,64,-99.99,,,0.00,Acu-Link.com,2013-11-21 09:19:00,
2013-11-21 04:35:00,41.7,30.8,30.06,SSE,157,4.2,-999.0,65,-99.99,,,0.00,Acu-Link.com,2013-11-21 09:35:00,
2013-11-21 04:50:00,41.7,30.4,30.06,South,180,2.2,-999.0,64,-99.99,,,0.00,Acu-Link.com,2013-11-21 09:50:00,
2013-11-21 05:05:00,41.7,30.8,30.06,SSE,157,2.7,-999.0,65,-99.99,,,0.00,Acu-Link.com,2013-11-21 10:05:00,
2013-11-21 05:20:00,42.4,31.1,30.07,SE,135,2.7,-999.0,64,-99.99,,,0.00,Acu-Link.com,2013-11-21 10:20:00,
2013-11-21 05:36:00,42.4,31.1,30.08,SSW,202,1.7,-999.0,64,-99.99,,,0.00,Acu-Link.com,2013-11-21 10:36:00,
2013-11-21 05:51:00,42.6,31.3,30.07,SSE,157,2.7,-999.0,64,-99.99,,,0.00,Acu-Link.com,2013-11-21 10:51:00,
2013-11-21 06:06:00,42.6,31.3,30.07,ESE,112,2.2,-999.0,64,-99.99,,,0.00,Acu-Link.com,2013-11-21 11:06:00,
2013-11-21 06:22:00,42.6,31.7,30.06,SSE,157,3.2,-999.0,65,-99.99,,,0.00,Acu-Link.com,2013-11-21 11:22:00,
2013-11-21 06:37:00,42.4,31.5,30.06,SSE,157,3.7,-999.0,65,-99.99,,,0.00,Acu-Link.com,2013-11-21 11:37:00,
2013-11-21 06:52:00,42.8,31.9,30.07,South,180,4.2,-999.0,65,-99.99,,,0.00,Acu-Link.com,2013-11-21 11:52:00,
2013-11-21 07:07:00,43.2,32.2,30.08,SSE,157,2.7,-999.0,65,-99.99,,,0.00,Acu-Link.com,2013-11-21 12:07:00,
2013-11-21 07:22:00,42.8,32.2,30.09,NE,45,0.0,-999.0,66,-99.99,,,0.00,Acu-Link.com,2013-11-21 12:22:00,
2013-11-21 07:38:00,42.4,31.9,30.10,SE,135,3.2,-999.0,66,-99.99,,,0.00,Acu-Link.com,2013-11-21 12:38:00,
2013-11-21 07:53:00,42.3,32.5,30.09,SE,135,0.0,-999.0,68,-99.99,,,0.00,Acu-Link.com,2013-11-21 12:53:00,
2013-11-21 08:08:00,43.0,32.8,30.10,WSW,247,1.7,-999.0,67,-99.99,,,0.00,Acu-Link.com,2013-11-21 13:08:00,
2013-11-21 08:23:00,43.7,32.7,30.11,SSE,157,2.7,-999.0,65,-99.99,,,0.00,Acu-Link.com,2013-11-21 13:23:00,
2013-11-21 08:39:00,44.6,33.6,30.10,SSE,157,2.2,-999.0,65,-99.99,,,0.00,Acu-Link.com,2013-11-21 13:39:00,
2013-11-21 08:54:00,45.1,34.0,30.11,WSW,247,3.2,-999.0,65,-99.99,,,0.00,Acu-Link.com,2013-11-21 13:54:00,
2013-11-21 09:09:00,45.5,34.4,30.11,SE,135,2.7,-999.0,65,-99.99,,,0.00,Acu-Link.com,2013-11-21 14:09:00,
2013-11-21 09:24:00,46.2,35.1,30.11,South,180,4.2,-999.0,65,-99.99,,,0.00,Acu-Link.com,2013-11-21 14:24:00,
2013-11-21 09:39:00,46.9,35.4,30.12,South,180,3.7,-999.0,64,-99.99,,,0.00,Acu-Link.com,2013-11-21 14:39:00,
2013-11-21 09:55:00,46.9,35.4,30.11,South,180,3.7,-999.0,64,-99.99,,,0.00,Acu-Link.com,2013-11-21 14:55:00,
2013-11-21 10:10:00,47.8,36.6,30.11,SE,135,3.7,-999.0,65,-99.99,,,0.00,Acu-Link.com,2013-11-21 15:10:00,
2013-11-21 10:25:00,48.9,36.9,30.11,SSE,157,3.2,-999.0,63,-99.99,,,0.00,Acu-Link.com,2013-11-21 15:25:00,
2013-11-21 10:41:00,49.8,37.7,30.12,SE,135,3.7,-999.0,63,-99.99,,,0.00,Acu-Link.com,2013-11-21 15:41:00,
2013-11-21 10:56:00,50.7,37.7,30.11,South,180,5.3,-999.0,61,-99.99,,,0.00,Acu-Link.com,2013-11-21 15:56:00,
2013-11-21 11:11:00,51.6,38.6,30.11,South,180,6.3,-999.0,61,-99.99,,,0.00,Acu-Link.com,2013-11-21 16:11:00,
2013-11-21 11:26:00,52.2,39.6,30.10,SSE,157,5.3,-999.0,62,-99.99,,,0.00,Acu-Link.com,2013-11-21 16:26:00,
2013-11-21 11:42:00,52.9,40.2,30.09,SSE,157,4.7,-999.0,62,-99.99,,,0.00,Acu-Link.com,2013-11-21 16:42:00,
2013-11-21 11:57:00,53.8,41.1,30.09,South,180,3.7,-999.0,62,-99.99,,,0.00,Acu-Link.com,2013-11-21 16:57:00,
2013-11-21 12:12:00,55.0,42.6,30.07,SSE,157,3.7,-999.0,63,-99.99,,,0.00,Acu-Link.com,2013-11-21 17:12:00,
2013-11-21 12:28:00,56.1,43.7,30.07,SSE,157,2.7,-999.0,63,-99.99,,,0.00,Acu-Link.com,2013-11-21 17:28:00,
2013-11-21 12:43:00,57.2,45.1,30.05,ESE,112,2.7,-999.0,64,-99.99,,,0.00,Acu-Link.com,2013-11-21 17:43:00,
2013-11-21 12:58:00,57.6,44.7,30.04,NNE,22,1.7,-999.0,62,-99.99,,,0.00,Acu-Link.com,2013-11-21 17:58:00,
2013-11-21 13:14:00,61.3,49.0,30.03,SW,225,4.2,-999.0,64,-99.99,,,0.00,Acu-Link.com,2013-11-21 18:14:00,
2013-11-21 13:29:00,61.0,49.1,30.02,SSE,157,3.2,-999.0,65,-99.99,,,0.00,Acu-Link.com,2013-11-21 18:29:00,
2013-11-21 13:44:00,61.7,49.4,30.02,ESE,112,7.8,-999.0,64,-99.99,,,0.00,Acu-Link.com,2013-11-21 18:44:00,
2013-11-21 13:59:00,61.7,50.6,30.01,South,180,8.3,-999.0,67,-99.99,,,0.00,Acu-Link.com,2013-11-21 18:59:00,
2013-11-21 14:14:00,61.5,50.4,30.01,SSW,202,5.8,-999.0,67,-99.99,,,0.00,Acu-Link.com,2013-11-21 19:14:00,
2013-11-21 14:29:00,61.9,50.8,30.01,SSW,202,3.7,-999.0,67,-99.99,,,0.00,Acu-Link.com,2013-11-21 19:29:00,
2013-11-21 14:44:00,61.3,49.8,30.00,South,180,6.3,-999.0,66,-99.99,,,0.00,Acu-Link.com,2013-11-21 19:44:00,
2013-11-21 15:00:00,61.2,49.7,30.00,SE,135,3.7,-999.0,66,-99.99,,,0.00,Acu-Link.com,2013-11-21 20:00:00,
2013-11-21 15:15:00,60.4,48.6,29.99,SW,225,7.3,-999.0,65,-99.99,,,0.00,Acu-Link.com,2013-11-21 20:15:00,
2013-11-21 15:30:00,60.4,49.0,29.98,SSW,202,5.8,-999.0,66,-99.99,,,0.00,Acu-Link.com,2013-11-21 20:30:00,
2013-11-21 15:45:00,59.5,48.5,29.99,SE,135,4.2,-999.0,67,-99.99,,,0.00,Acu-Link.com,2013-11-21 20:45:00,
2013-11-21 16:01:00,59.4,48.8,29.99,SSE,157,5.3,-999.0,68,-99.99,,,0.00,Acu-Link.com,2013-11-21 21:01:00,
2013-11-21 16:16:00,59.2,48.6,30.00,SSW,202,3.7,-999.0,68,-99.99,,,0.00,Acu-Link.com,2013-11-21 21:16:00,
2013-11-21 16:31:00,59.2,48.6,29.99,SW,225,5.3,-999.0,68,-99.99,,,0.00,Acu-Link.com,2013-11-21 21:31:00,
2013-11-21 16:46:00,58.8,48.3,29.99,South,180,5.3,-999.0,68,-99.99,,,0.00,Acu-Link.com,2013-11-21 21:46:00,
2013-11-21 17:01:00,58.6,48.5,29.99,SE,135,3.7,-999.0,69,-99.99,,,0.00,Acu-Link.com,2013-11-21 22:01:00,
2013-11-21 17:17:00,58.3,48.6,30.00,South,180,3.7,-999.0,70,-99.99,,,0.00,Acu-Link.com,2013-11-21 22:17:00,
2013-11-21 17:32:00,57.7,48.0,30.00,South,180,2.7,-999.0,70,-99.99,,,0.00,Acu-Link.com,2013-11-21 22:32:00,
2013-11-21 17:47:00,57.4,48.1,30.00,SSE,157,3.7,-999.0,71,-99.99,,,0.00,Acu-Link.com,2013-11-21 22:47:00,
2013-11-21 18:03:00,57.0,48.1,30.01,South,180,2.7,-999.0,72,-99.99,,,0.00,Acu-Link.com,2013-11-21 23:03:00,
2013-11-21 18:18:00,56.8,47.9,30.02,SSW,202,1.7,-999.0,72,-99.99,,,0.00,Acu-Link.com,2013-11-21 23:18:00,
2013-11-21 18:36:00,57.0,48.4,30.02,SSE,157,3.2,-999.0,73,-99.99,,,0.00,Acu-Link.com,2013-11-21 23:36:00,
2013-11-21 18:51:00,56.8,48.6,30.03,SSE,157,2.7,-999.0,74,-99.99,,,0.00,Acu-Link.com,2013-11-21 23:51:00,
2013-11-21 19:06:00,56.8,48.6,30.04,SSE,157,3.2,-999.0,74,-99.99,,,0.00,Acu-Link.com,2013-11-22 00:06:00,
2013-11-21 19:21:00,56.8,49.0,30.03,SSE,157,2.2,-999.0,75,-99.99,,,0.00,Acu-Link.com,2013-11-22 00:21:00,
2013-11-21 19:37:00,56.5,48.7,30.03,SW,225,3.2,-999.0,75,-99.99,,,0.00,Acu-Link.com,2013-11-22 00:37:00,
2013-11-21 19:52:00,56.5,49.0,30.03,SSE,157,3.2,-999.0,76,-99.99,,,0.00,Acu-Link.com,2013-11-22 00:52:00,
2013-11-21 20:07:00,56.3,49.2,30.02,SSW,202,4.7,-999.0,77,-99.99,,,0.00,Acu-Link.com,2013-11-22 01:07:00,
2013-11-21 20:23:00,56.5,49.4,30.02,SSE,157,4.7,-999.0,77,-99.99,,,0.00,Acu-Link.com,2013-11-22 01:23:00,
2013-11-21 20:38:00,56.8,49.7,30.01,ESE,112,6.8,-999.0,77,-99.99,,,0.00,Acu-Link.com,2013-11-22 01:38:00,
2013-11-21 20:53:00,57.0,49.9,30.00,South,180,6.3,-999.0,77,-99.99,,,0.00,Acu-Link.com,2013-11-22 01:53:00,
2013-11-21 21:08:00,57.0,49.9,30.00,SSW,202,5.3,-999.0,77,-99.99,,,0.00,Acu-Link.com,2013-11-22 02:08:00,
2013-11-21 21:24:00,57.2,50.1,29.99,South,180,4.7,-999.0,77,-99.99,,,0.00,Acu-Link.com,2013-11-22 02:24:00,
2013-11-21 21:39:00,57.2,50.1,29.99,SW,225,4.7,-999.0,77,-99.99,,,0.00,Acu-Link.com,2013-11-22 02:39:00,
2013-11-21 21:54:00,57.0,49.9,29.99,South,180,2.7,-999.0,77,-99.99,,,0.00,Acu-Link.com,2013-11-22 02:54:00,
2013-11-21 22:09:00,56.8,50.0,29.99,West,270,2.7,-999.0,78,-99.99,,,0.00,Acu-Link.com,2013-11-22 03:09:00,
2013-11-21 22:24:00,56.8,50.0,29.99,SSE,157,2.7,-999.0,78,-99.99,,,0.00,Acu-Link.com,2013-11-22 03:24:00,
2013-11-21 22:39:00,56.5,50.1,30.00,SW,225,4.7,-999.0,79,-99.99,,,0.00,Acu-Link.com,2013-11-22 03:39:00,
2013-11-21 22:55:00,56.7,50.3,29.99,South,180,3.2,-999.0,79,-99.99,,,0.00,Acu-Link.com,2013-11-22 03:55:00,
2013-11-21 23:10:00,56.3,49.9,30.00,SSW,202,0.0,-999.0,79,-99.99,,,0.00,Acu-Link.com,2013-11-22 04:10:00,
2013-11-21 23:25:00,56.3,50.2,30.01,WNW,292,1.7,-999.0,80,-99.99,,,0.00,Acu-Link.com,2013-11-22 04:25:00,
2013-11-21 23:40:00,56.5,50.4,30.01,WSW,247,2.7,-999.0,80,-99.99,,,0.00,Acu-Link.com,2013-11-22 04:40:00,
2013-11-21 23:55:00,56.3,50.2,30.01,WSW,247,2.7,-999.0,80,-99.99,,,0.00,Acu-Link.com,2013-11-22 04:55:00,